When you browse on this site, cookies collect data to enhance your experience and personalize the content and advertising you see.
Visit our Privacy Policy to learn more. By continuing to use the site, you agree to this use of cookies and data.
  • In Czech Republic
  • List of Countries
  • For 7 days
  • Water Temperature
  • Satellite Maps
  • Weather Map
  • Weather Widgets
  • user-avatar
    Login

    Hourly Weather Swansea

    Today, 17 December, Monday

    Time Temperature Precipitation Wind Pressure Humidity
    00:00 +4°C° 0 mm 6 mps 755 mmHg 87%
    01:00 +4°C° 0 mm 6 mps 756 mmHg 87%
    02:00 +4°C° 0 mm 6 mps 756 mmHg 87%
    03:00 +4°C° 0 mm 6 mps 757 mmHg 87%
    04:00 +5°C° 0 mm 5 mps 758 mmHg 87%
    05:00 +5°C° 0 mm 5 mps 758 mmHg 87%
    06:00 +5°C° 0 mm 5 mps 759 mmHg 87%
    07:00 +5°C° 0 mm 5 mps 759 mmHg 88%
    08:00 +5°C° 0 mm 5 mps 759 mmHg 88%
    09:00 +6°C° 0 mm 5 mps 760 mmHg 88%
    10:00 +7°C° 0 mm 6 mps 759 mmHg 86%
    11:00 +8°C° 0 mm 6 mps 759 mmHg 85%
    12:00 +9°C° 0 mm 7 mps 759 mmHg 83%
    13:00 +9°C° 0.1 mm 8 mps 759 mmHg 84%
    14:00 +9°C° 0.1 mm 8 mps 759 mmHg 86%
    15:00 +8°C° 0.1 mm 9 mps 759 mmHg 87%
    16:00 +8°C° 0.3 mm 9 mps 759 mmHg 88%
    17:00 +8°C° 0.3 mm 9 mps 758 mmHg 89%
    18:00 +8°C° 0.3 mm 9 mps 758 mmHg 90%
    19:00 +8°C° 0 mm 9 mps 758 mmHg 89%
    20:00 +9°C° 0 mm 10 mps 758 mmHg 89%
    21:00 +9°C° 0 mm 10 mps 758 mmHg 88%
    22:00 +9°C° 0.1 mm 10 mps 757 mmHg 88%
    23:00 +9°C° 0.1 mm 10 mps 757 mmHg 87%

    Tomorrow, 18 December, Tuesday

    Time Temperature Precipitation Wind Pressure Humidity
    00:00 +9°C° 0.1 mm 11 mps 756 mmHg 87%
    01:00 +9°C° 0.1 mm 11 mps 755 mmHg 87%
    02:00 +9°C° 0.1 mm 12 mps 755 mmHg 86%
    03:00 +9°C° 0.1 mm 12 mps 754 mmHg 86%
    04:00 +9°C° 0.1 mm 12 mps 753 mmHg 85%
    05:00 +9°C° 0.1 mm 13 mps 752 mmHg 83%
    06:00 +9°C° 0.1 mm 13 mps 751 mmHg 82%
    07:00 +8°C° 0.6 mm 14 mps 750 mmHg 82%
    08:00 +8°C° 0.6 mm 14 mps 750 mmHg 82%
    09:00 +8°C° 0.6 mm 15 mps 749 mmHg 82%
    10:00 +8°C° 1.7 mm 15 mps 748 mmHg 84%
    11:00 +8°C° 1.7 mm 15 mps 748 mmHg 85%
    12:00 +8°C° 1.7 mm 15 mps 747 mmHg 87%
    13:00 +8°C° 2.2 mm 12 mps 747 mmHg 89%
    14:00 +7°C° 2.2 mm 10 mps 747 mmHg 91%
    15:00 +8°C° 2.2 mm 7 mps 747 mmHg 93%
    16:00 +8°C° 1 mm 7 mps 747 mmHg 92%
    17:00 +7°C° 1 mm 6 mps 748 mmHg 91%
    18:00 +7°C° 1 mm 5 mps 748 mmHg 91%
    19:00 +7°C° 0.2 mm 5 mps 748 mmHg 90%
    20:00 +7°C° 0.2 mm 6 mps 749 mmHg 89%
    21:00 +7°C° 0.2 mm 6 mps 749 mmHg 88%
    22:00 +6°C° 0.2 mm 5 mps 750 mmHg 88%
    23:00 +6°C° 0.2 mm 5 mps 750 mmHg 89%

    Day after tomorrow, 19 December, Wednesday

    Time Temperature Precipitation Wind Pressure Humidity
    00:00 +6°C° 0.2 mm 5 mps 750 mmHg 89%
    01:00 +6°C° 0.3 mm 5 mps 750 mmHg 89%
    02:00 +6°C° 0.3 mm 5 mps 751 mmHg 88%
    03:00 +6°C° 0.3 mm 5 mps 751 mmHg 88%
    04:00 +5°C° 0.1 mm 5 mps 751 mmHg 87%
    05:00 +5°C° 0.1 mm 5 mps 751 mmHg 87%
    06:00 +5°C° 0.1 mm 5 mps 752 mmHg 86%
    07:00 +5°C° 0.1 mm 5 mps 752 mmHg 86%
    08:00 +5°C° 0.1 mm 5 mps 752 mmHg 86%
    09:00 +5°C° 0.1 mm 5 mps 753 mmHg 86%
    10:00 +5°C° 0.1 mm 6 mps 753 mmHg 83%
    11:00 +7°C° 0.1 mm 6 mps 753 mmHg 80%
    12:00 +8°C° 0.1 mm 7 mps 753 mmHg 77%
    13:00 +8°C° 0.3 mm 7 mps 753 mmHg 78%
    14:00 +6°C° 0.3 mm 7 mps 753 mmHg 78%
    15:00 +6°C° 0.3 mm 8 mps 753 mmHg 79%
    16:00 +6°C° 0.4 mm 7 mps 753 mmHg 80%
    17:00 +5°C° 0.4 mm 7 mps 753 mmHg 82%
    18:00 +5°C° 0.4 mm 7 mps 753 mmHg 83%
    19:00 +5°C° 0.2 mm 7 mps 753 mmHg 83%
    20:00 +5°C° 0.2 mm 7 mps 753 mmHg 84%
    21:00 +5°C° 0.2 mm 7 mps 753 mmHg 84%
    22:00 +5°C° 0.3 mm 7 mps 754 mmHg 85%
    23:00 +5°C° 0.3 mm 7 mps 754 mmHg 86%

    20 December, Thursday

    Time Temperature Precipitation Wind Pressure Humidity
    00:00 +5°C° 0.3 mm 7 mps 754 mmHg 86%
    01:00 +5°C° 0.5 mm 8 mps 754 mmHg 86%
    02:00 +5°C° 0.5 mm 8 mps 754 mmHg 85%
    03:00 +5°C° 0.5 mm 8 mps 754 mmHg 84%
    04:00 +5°C° 0.5 mm 8 mps 754 mmHg 84%
    05:00 +5°C° 0.5 mm 8 mps 754 mmHg 84%
    06:00 +5°C° 0.5 mm 9 mps 754 mmHg 83%
    07:00 +5°C° 0.4 mm 8 mps 754 mmHg 84%
    08:00 +5°C° 0.4 mm 8 mps 754 mmHg 84%
    09:00 +6°C° 0.4 mm 8 mps 755 mmHg 84%
    10:00 +6°C° 0.3 mm 8 mps 755 mmHg 82%
    11:00 +6°C° 0.3 mm 9 mps 755 mmHg 80%
    12:00 +7°C° 0.3 mm 9 mps 756 mmHg 78%
    13:00 +7°C° 0.2 mm 8 mps 756 mmHg 79%
    14:00 +7°C° 0.2 mm 8 mps 756 mmHg 80%
    15:00 +8°C° 0.2 mm 7 mps 756 mmHg 80%
    16:00 +7°C° 0 mm 6 mps 756 mmHg 83%
    17:00 +5°C° 0 mm 6 mps 756 mmHg 85%
    18:00 +6°C° 0 mm 5 mps 756 mmHg 87%
    19:00 +6°C° 0.1 mm 5 mps 756 mmHg 88%
    20:00 +6°C° 0.1 mm 4 mps 755 mmHg 89%
    21:00 +6°C° 0.1 mm 4 mps 755 mmHg 90%
    22:00 +7°C° 0.5 mm 5 mps 754 mmHg 92%
    23:00 +8°C° 0.5 mm 6 mps 753 mmHg 94%

    21 December, Friday

    Time Temperature Precipitation Wind Pressure Humidity
    00:00 +9°C° 0.5 mm 7 mps 752 mmHg 96%
    01:00 +10°C° 0.3 mm 8 mps 751 mmHg 95%
    02:00 +10°C° 0.3 mm 9 mps 750 mmHg 95%
    03:00 +11°C° 0.3 mm 9 mps 749 mmHg 94%
    04:00 +11°C° 0.8 mm 10 mps 748 mmHg 94%
    05:00 +12°C° 0.8 mm 10 mps 748 mmHg 94%
    06:00 +12°C° 0.8 mm 10 mps 747 mmHg 94%
    07:00 +11°C° 0.1 mm 11 mps 748 mmHg 90%
    08:00 +9°C° 0.1 mm 11 mps 749 mmHg 85%
    09:00 +7°C° 0.1 mm 11 mps 750 mmHg 81%
    10:00 +8°C° 0 mm 11 mps 751 mmHg 81%
    11:00 +8°C° 0 mm 11 mps 752 mmHg 80%
    12:00 +8°C° 0 mm 12 mps 753 mmHg 80%
    13:00 +8°C° 0 mm 11 mps 753 mmHg 80%
    14:00 +8°C° 0 mm 11 mps 753 mmHg 81%
    15:00 +9°C° 0 mm 11 mps 754 mmHg 81%
    16:00 +8°C° 0.2 mm 11 mps 754 mmHg 83%
    17:00 +8°C° 0.2 mm 11 mps 754 mmHg 85%
    18:00 +8°C° 0.2 mm 11 mps 755 mmHg 87%
    19:00 +9°C° 0.1 mm 11 mps 755 mmHg 87%
    20:00 +9°C° 0.1 mm 11 mps 755 mmHg 86%
    21:00 +9°C° 0.1 mm 11 mps 755 mmHg 86%
    22:00 +9°C° 0.1 mm 11 mps 756 mmHg 86%
    23:00 +9°C° 0.1 mm 10 mps 756 mmHg 86%

    22 December, Saturday

    Time Temperature Precipitation Wind Pressure Humidity
    00:00 +10°C° 0.1 mm 9 mps 757 mmHg 87%
    01:00 +9°C° 0 mm 8 mps 757 mmHg 88%
    02:00 +9°C° 0 mm 7 mps 758 mmHg 90%
    03:00 +8°C° 0 mm 5 mps 758 mmHg 92%
    04:00 +8°C° 0.3 mm 5 mps 758 mmHg 93%
    05:00 +8°C° 0.3 mm 4 mps 758 mmHg 94%
    06:00 +8°C° 0.3 mm 4 mps 758 mmHg 95%
    07:00 +8°C° 1 mm 4 mps 758 mmHg 95%
    08:00 +9°C° 1 mm 5 mps 759 mmHg 95%
    09:00 +9°C° 1 mm 6 mps 759 mmHg 95%
    10:00 +10°C° 0.1 mm 6 mps 759 mmHg 92%
    11:00 +10°C° 0.1 mm 6 mps 759 mmHg 88%
    12:00 +11°C° 0.1 mm 6 mps 760 mmHg 85%
    13:00 +10°C° 0 mm 6 mps 760 mmHg 86%
    14:00 +10°C° 0 mm 5 mps 760 mmHg 87%
    15:00 +10°C° 0 mm 4 mps 761 mmHg 88%
    16:00 +10°C° 0 mm 3 mps 761 mmHg 89%
    17:00 +9°C° 0 mm 3 mps 761 mmHg 91%
    18:00 +8°C° 0 mm 2 mps 761 mmHg 93%
    19:00 +8°C° 0 mm 3 mps 761 mmHg 93%
    20:00 +8°C° 0 mm 3 mps 761 mmHg 94%
    21:00 +8°C° 0 mm 4 mps 761 mmHg 94%
    22:00 +8°C° 0.3 mm 5 mps 761 mmHg 95%
    23:00 +9°C° 0.3 mm 5 mps 760 mmHg 96%
    Show more